STARLINK-34906

Last updated on Mon Oct 20 2025 00:02:08 GMT+0000 (Coordinated Universal Time)

1 65896U 25224Q 25292.25002315 -.01221033 00000+0 -54128-2 0 9992 2 65896 53.1508 313.3764 0001036 86.6147 92.9446 15.86155385 3157
UTC large
Height (km)
Speed (km/s)
/
Latitude / Longitude
Inclination (degrees)
Orbital Period (minutes)
Azimuth
Elevation
Range (km)
Doppler Factor

Next 0 passes for location: London (51.5072 / 0.1276)

Sorry there are no passes over London.